Home   Weather   Carson City   Past weeks

Flag for USA Past Weather in Carson City, Nevada, USA — Yesterday and Last 2 Weeks

Now
30 °F

Passing clouds.


Feels Like: 30 °F
Forecast: 16 / 45 °F
Wind: No wind

Location: Reno Tahoe International Airport

Current Time: Dec 2, 2016 at 11:00:26 pm

Latest Report: Dec 2, 2016 at 9:55 pm


Visibility: 10 mi

Pressure: 30.38 "Hg (25.40 "Hg at 1425m altitude)

Humidity: 49%

Dew Point: 13 °F

Location of Carson CityLocation

Past Weather in Carson City — Graph

°F

Carson City Temperature Yesterday

Maximum temperature yesterday: 41 °F (at 12:55 pm)
Minimum temperature yesterday: 29 °F (at 11:55 pm)
Average temperature yesterday: 36 °F

High & Low Weather Summary for the Past Weeks

 TemperatureHumidityPressure
High66 °F (Nov 19, 11:55 am)89% (Nov 21, 6:55 am)30.40 "Hg (Nov 21, 6:55 am)
Low21 °F (Dec 2, 6:55 am)7% (Nov 25, 3:55 pm)29.59 "Hg (Nov 26, 9:55 pm)
Average39 °F55%30.03 "Hg
* Reported Nov 17 9:55 pm — Dec 2 9:55 pm, Carson City, Weather by CustomWeather, © 2016

Note: Actual official high and low records may vary slightly from our data, if they occured in-between our weather recording intervals... More about our weather records

Advertising

Carson City Weather History for the Previous 24 Hours

Scroll right to see more
 ConditionsComfort  
Time TempWeatherWind HumidityBarometerVisibility
9:55 pm
Fri, Dec 2
30 °FPassing clouds.No wind49%30.38 "Hg10 mi
8:55 pm31 °FPassing clouds.No wind47%30.39 "Hg10 mi
7:55 pm32 °FPassing clouds.5 mph47%30.39 "Hg10 mi
6:55 pm32 °FClear.6 mph45%30.40 "Hg10 mi
5:55 pm33 °FClear.3 mph43%30.37 "Hg10 mi
4:55 pm35 °FPassing clouds.7 mph38%30.37 "Hg10 mi
3:55 pm38 °FPassing clouds.9 mph36%30.34 "Hg10 mi
2:55 pm40 °FPassing clouds.12 mph35%30.33 "Hg10 mi
1:55 pm40 °FPassing clouds.13 mph36%30.32 "Hg10 mi
12:55 pm39 °FPassing clouds.9 mph36%30.33 "Hg10 mi
11:55 am37 °FPassing clouds.10 mph41%30.36 "Hg10 mi
10:55 am36 °FPassing clouds.9 mph44%30.37 "Hg10 mi
9:55 am34 °FPassing clouds.3 mph50%30.39 "Hg10 mi
8:55 am29 °FPassing clouds.3 mph61%30.39 "Hg10 mi
7:55 am25 °FPassing clouds.3 mph69%30.38 "Hg10 mi
6:55 am21 °FPassing clouds.3 mph74%30.37 "Hg10 mi
5:55 am25 °FClear.No wind69%30.34 "Hg10 mi
4:55 am24 °FClear.No wind71%30.32 "Hg10 mi
3:55 am25 °FClear.No wind69%30.29 "Hg10 mi
2:55 am26 °FPassing clouds.3 mph69%30.29 "Hg10 mi
1:55 am28 °FPassing clouds.5 mph64%30.29 "Hg10 mi
12:55 am29 °FPassing clouds.No wind61%30.28 "Hg10 mi
11:55 pm
Thu, Dec 1
29 °FPassing clouds.5 mph61%30.28 "Hg10 mi
Weather by CustomWeather, © 2016

See weather overviewHow to use our weather pages